Time,TemperatureF,DewpointF,PressureIn,WindDirection,WindDirectionDegrees,WindSpeedMPH,WindSpeedGustMPH,Humidity,HourlyPrecipIn,Conditions,Clouds,dailyrainin,SoftwareType,DateUTC
2013-11-25 00:11:00,39.6,16.0,31.17,NW,304,0.0,-999.0,38,-99.99,,,0.00,weatherlink.com 1.10,2013-11-25 06:11:00,
2013-11-25 00:26:00,39.6,15.0,31.17,NW,308,1.0,-999.0,37,-99.99,,,0.00,weatherlink.com 1.10,2013-11-25 06:26:00,
2013-11-25 00:41:00,39.8,15.0,31.18,WSW,242,0.0,-999.0,37,-99.99,,,0.00,weatherlink.com 1.10,2013-11-25 06:41:00,
2013-11-25 00:56:00,39.8,15.0,31.18,WSW,245,3.0,-999.0,37,-99.99,,,0.00,weatherlink.com 1.10,2013-11-25 06:56:00,
2013-11-25 01:11:00,39.7,15.0,31.18,WSW,246,2.0,-999.0,36,-99.99,,,0.00,weatherlink.com 1.10,2013-11-25 07:11:00,
2013-11-25 01:26:00,39.6,15.0,31.17,WSW,248,3.0,-999.0,36,-99.99,,,0.00,weatherlink.com 1.10,2013-11-25 07:26:00,
2013-11-25 01:41:00,39.6,15.0,31.16,West,260,1.0,-999.0,36,-99.99,,,0.00,weatherlink.com 1.10,2013-11-25 07:41:00,
2013-11-25 01:56:00,39.6,15.0,31.15,West,261,3.0,-999.0,36,-99.99,,,0.00,weatherlink.com 1.10,2013-11-25 07:56:00,
2013-11-25 02:11:00,39.6,15.0,31.16,West,268,0.0,-999.0,36,-99.99,,,0.00,weatherlink.com 1.10,2013-11-25 08:11:00,
2013-11-25 02:27:00,39.6,14.0,31.14,NW,313,1.0,-999.0,35,-99.99,,,0.00,weatherlink.com 1.10,2013-11-25 08:27:00,
2013-11-25 02:42:00,39.5,13.0,31.13,NW,315,1.0,-999.0,34,-99.99,,,0.00,weatherlink.com 1.10,2013-11-25 08:42:00,
2013-11-25 02:57:00,39.3,12.0,31.13,WNW,303,2.0,-999.0,32,-99.99,,,0.00,weatherlink.com 1.10,2013-11-25 08:57:00,
2013-11-25 03:12:00,39.0,11.0,31.12,WNW,300,1.0,-999.0,32,-99.99,,,0.00,weatherlink.com 1.10,2013-11-25 09:12:00,
2013-11-25 03:26:00,39.1,11.0,31.10,NW,313,3.0,-999.0,31,-99.99,,,0.00,weatherlink.com 1.10,2013-11-25 09:26:00,
2013-11-25 03:41:00,39.1,10.0,31.10,NW,317,3.0,-999.0,30,-99.99,,,0.00,weatherlink.com 1.10,2013-11-25 09:41:00,
2013-11-25 03:56:00,39.1,9.0,31.09,NW,313,2.0,-999.0,29,-99.99,,,0.00,weatherlink.com 1.10,2013-11-25 09:56:00,
2013-11-25 04:11:00,39.1,9.0,31.08,NW,316,3.0,-999.0,29,-99.99,,,0.00,weatherlink.com 1.10,2013-11-25 10:11:00,
2013-11-25 04:27:00,39.0,9.0,31.09,WNW,300,4.0,-999.0,29,-99.99,,,0.00,weatherlink.com 1.10,2013-11-25 10:27:00,
2013-11-25 04:42:00,39.2,9.0,31.08,WNW,301,1.0,-999.0,29,-99.99,,,0.00,weatherlink.com 1.10,2013-11-25 10:42:00,
2013-11-25 04:57:00,39.3,9.0,31.11,WNW,302,2.0,-999.0,29,-99.99,,,0.00,weatherlink.com 1.10,2013-11-25 10:57:00,
2013-11-25 05:12:00,39.3,9.0,31.10,WNW,297,1.0,-999.0,29,-99.99,,,0.00,weatherlink.com 1.10,2013-11-25 11:12:00,
2013-11-25 05:27:00,39.2,9.0,31.09,WNW,298,2.0,-999.0,29,-99.99,,,0.00,weatherlink.com 1.10,2013-11-25 11:27:00,
2013-11-25 05:42:00,39.3,9.0,31.08,WNW,302,4.0,-999.0,29,-99.99,,,0.00,weatherlink.com 1.10,2013-11-25 11:42:00,
2013-11-25 05:57:00,39.3,9.0,31.09,WNW,293,4.0,-999.0,28,-99.99,,,0.00,weatherlink.com 1.10,2013-11-25 11:57:00,
2013-11-25 06:12:00,39.2,9.0,31.09,WNW,293,0.0,-999.0,29,-99.99,,,0.00,weatherlink.com 1.10,2013-11-25 12:12:00,
2013-11-25 06:27:00,39.3,9.0,31.07,WNW,299,2.0,-999.0,28,-99.99,,,0.00,weatherlink.com 1.10,2013-11-25 12:27:00,
2013-11-25 06:42:00,39.3,9.0,31.06,WNW,302,1.0,-999.0,29,-99.99,,,0.00,weatherlink.com 1.10,2013-11-25 12:42:00,
2013-11-25 06:57:00,39.2,9.0,31.07,NNW,329,1.0,-999.0,29,-99.99,,,0.00,weatherlink.com 1.10,2013-11-25 12:57:00,
2013-11-25 07:12:00,39.3,9.0,31.07,NW,310,2.0,-999.0,28,-99.99,,,0.00,weatherlink.com 1.10,2013-11-25 13:12:00,
2013-11-25 07:27:00,39.2,8.0,31.08,NW,315,2.0,-999.0,28,-99.99,,,0.00,weatherlink.com 1.10,2013-11-25 13:27:00,
2013-11-25 07:42:00,39.3,9.0,31.09,WNW,294,1.0,-999.0,28,-99.99,,,0.00,weatherlink.com 1.10,2013-11-25 13:42:00,
2013-11-25 07:57:00,39.5,9.0,31.08,WNW,294,0.0,-999.0,28,-99.99,,,0.00,weatherlink.com 1.10,2013-11-25 13:57:00,
2013-11-25 08:12:00,39.4,9.0,31.07,NE,38,2.0,-999.0,28,-99.99,,,0.00,weatherlink.com 1.10,2013-11-25 14:12:00,
2013-11-25 08:27:00,39.3,9.0,31.07,NNE,24,0.0,-999.0,29,-99.99,,,0.00,weatherlink.com 1.10,2013-11-25 14:27:00,
2013-11-25 08:42:00,39.5,9.0,31.09,WNW,292,0.0,-999.0,28,-99.99,,,0.00,weatherlink.com 1.10,2013-11-25 14:42:00,
2013-11-25 08:57:00,39.7,9.0,31.09,WNW,294,4.0,-999.0,28,-99.99,,,0.00,weatherlink.com 1.10,2013-11-25 14:57:00,
2013-11-25 09:12:00,39.6,9.0,31.10,WNW,288,3.0,-999.0,28,-99.99,,,0.00,weatherlink.com 1.10,2013-11-25 15:12:00,
2013-11-25 09:27:00,39.8,9.0,31.08,NW,308,3.0,-999.0,28,-99.99,,,0.00,weatherlink.com 1.10,2013-11-25 15:27:00,
2013-11-25 09:42:00,39.9,9.0,31.08,NW,321,4.0,-999.0,28,-99.99,,,0.00,weatherlink.com 1.10,2013-11-25 15:42:00,
2013-11-25 09:57:00,40.1,9.0,31.08,WNW,301,2.0,-999.0,28,-99.99,,,0.00,weatherlink.com 1.10,2013-11-25 15:57:00,
2013-11-25 10:12:00,40.2,9.0,31.07,NW,319,2.0,-999.0,28,-99.99,,,0.00,weatherlink.com 1.10,2013-11-25 16:12:00,
2013-11-25 10:26:00,40.2,9.0,31.07,NW,309,3.0,-999.0,28,-99.99,,,0.00,weatherlink.com 1.10,2013-11-25 16:26:00,
2013-11-25 10:41:00,40.2,9.0,31.06,North,10,5.0,-999.0,28,-99.99,,,0.00,weatherlink.com 1.10,2013-11-25 16:41:00,
2013-11-25 10:56:00,40.4,10.0,31.07,North,355,1.0,-999.0,28,-99.99,,,0.00,weatherlink.com 1.10,2013-11-25 16:56:00,
2013-11-25 11:11:00,41.0,10.0,31.06,NW,308,4.0,-999.0,28,-99.99,,,0.00,weatherlink.com 1.10,2013-11-25 17:11:00,
2013-11-25 11:27:00,40.9,10.0,31.05,NW,304,2.0,-999.0,28,-99.99,,,0.00,weatherlink.com 1.10,2013-11-25 17:27:00,
2013-11-25 11:42:00,41.1,10.0,31.04,NW,310,2.0,-999.0,28,-99.99,,,0.00,weatherlink.com 1.10,2013-11-25 17:42:00,
2013-11-25 11:57:00,40.9,10.0,31.03,NW,311,5.0,-999.0,28,-99.99,,,0.00,weatherlink.com 1.10,2013-11-25 17:57:00,
2013-11-25 12:12:00,41.4,10.0,31.01,NW,321,3.0,-999.0,28,-99.99,,,0.00,weatherlink.com 1.10,2013-11-25 18:12:00,
2013-11-25 12:26:00,41.1,10.0,31.00,NW,325,4.0,-999.0,28,-99.99,,,0.00,weatherlink.com 1.10,2013-11-25 18:26:00,
2013-11-25 12:41:00,41.2,10.0,30.99,NNW,327,3.0,-999.0,28,-99.99,,,0.00,weatherlink.com 1.10,2013-11-25 18:41:00,
2013-11-25 12:56:00,41.3,10.0,30.98,WNW,300,3.0,-999.0,28,-99.99,,,0.00,weatherlink.com 1.10,2013-11-25 18:56:00,
2013-11-25 13:11:00,41.2,10.0,30.97,WNW,298,6.0,-999.0,28,-99.99,,,0.00,weatherlink.com 1.10,2013-11-25 19:11:00,
2013-11-25 13:26:00,41.1,10.0,30.96,NW,317,4.0,-999.0,28,-99.99,,,0.00,weatherlink.com 1.10,2013-11-25 19:26:00,
2013-11-25 13:41:00,41.1,10.0,30.96,WNW,300,4.0,-999.0,28,-99.99,,,0.00,weatherlink.com 1.10,2013-11-25 19:41:00,
2013-11-25 13:57:00,41.2,10.0,30.95,NNW,327,10.0,-999.0,28,-99.99,,,0.00,weatherlink.com 1.10,2013-11-25 19:57:00,
2013-11-25 14:12:00,41.0,10.0,30.95,NW,313,6.0,-999.0,28,-99.99,,,0.00,weatherlink.com 1.10,2013-11-25 20:12:00,
2013-11-25 14:27:00,41.0,10.0,30.93,NW,307,3.0,-999.0,28,-99.99,,,0.00,weatherlink.com 1.10,2013-11-25 20:27:00,
2013-11-25 14:42:00,41.0,10.0,30.94,WNW,297,6.0,-999.0,28,-99.99,,,0.00,weatherlink.com 1.10,2013-11-25 20:42:00,
2013-11-25 14:57:00,41.0,10.0,30.93,WNW,295,3.0,-999.0,28,-99.99,,,0.00,weatherlink.com 1.10,2013-11-25 20:57:00,
2013-11-25 15:12:00,40.9,10.0,30.97,NW,304,0.0,-999.0,28,-99.99,,,0.00,weatherlink.com 1.10,2013-11-25 21:12:00,
2013-11-25 15:27:00,40.9,10.0,30.92,NW,305,4.0,-999.0,28,-99.99,,,0.00,weatherlink.com 1.10,2013-11-25 21:27:00,
2013-11-25 15:42:00,40.6,10.0,30.92,WNW,284,3.0,-999.0,28,-99.99,,,0.00,weatherlink.com 1.10,2013-11-25 21:42:00,
2013-11-25 15:57:00,40.6,10.0,30.93,NW,311,4.0,-999.0,28,-99.99,,,0.00,weatherlink.com 1.10,2013-11-25 21:57:00,
2013-11-25 16:12:00,40.6,10.0,30.93,NW,305,4.0,-999.0,28,-99.99,,,0.00,weatherlink.com 1.10,2013-11-25 22:12:00,
2013-11-25 16:27:00,40.6,10.0,30.91,NW,314,7.0,-999.0,28,-99.99,,,0.00,weatherlink.com 1.10,2013-11-25 22:27:00,
2013-11-25 16:42:00,40.6,10.0,30.93,WNW,290,2.0,-999.0,28,-99.99,,,0.00,weatherlink.com 1.10,2013-11-25 22:42:00,
2013-11-25 16:57:00,40.6,10.0,30.94,NW,324,9.0,-999.0,28,-99.99,,,0.00,weatherlink.com 1.10,2013-11-25 22:57:00,
2013-11-25 17:12:00,40.7,10.0,30.95,WNW,301,2.0,-999.0,28,-99.99,,,0.00,weatherlink.com 1.10,2013-11-25 23:12:00,
2013-11-25 17:27:00,40.7,10.0,30.94,North,360,3.0,-999.0,28,-99.99,,,0.00,weatherlink.com 1.10,2013-11-25 23:27:00,
2013-11-25 17:42:00,40.7,10.0,30.94,NW,313,7.0,-999.0,28,-99.99,,,0.01,weatherlink.com 1.10,2013-11-25 23:42:00,
2013-11-25 17:57:00,40.6,10.0,30.94,NW,313,7.0,-999.0,28,-99.99,,,0.01,weatherlink.com 1.10,2013-11-25 23:57:00,
2013-11-25 18:12:00,40.6,10.0,30.94,NW,306,3.0,-999.0,28,-99.99,,,0.01,weatherlink.com 1.10,2013-11-26 00:12:00,
2013-11-25 18:27:00,40.5,10.0,30.94,WNW,302,4.0,-999.0,28,-99.99,,,0.01,weatherlink.com 1.10,2013-11-26 00:27:00,
2013-11-25 18:42:00,40.3,9.0,30.95,NW,322,5.0,-999.0,28,-99.99,,,0.01,weatherlink.com 1.10,2013-11-26 00:42:00,
2013-11-25 18:57:00,40.3,9.0,30.96,NW,306,2.0,-999.0,28,-99.99,,,0.01,weatherlink.com 1.10,2013-11-26 00:57:00,
2013-11-25 19:12:00,40.3,9.0,30.96,WNW,303,2.0,-999.0,28,-99.99,,,0.01,weatherlink.com 1.10,2013-11-26 01:12:00,
2013-11-25 19:26:00,40.3,9.0,30.97,WNW,301,4.0,-999.0,28,-99.99,,,0.01,weatherlink.com 1.10,2013-11-26 01:26:00,
2013-11-25 19:41:00,40.2,9.0,30.97,NW,318,3.0,-999.0,28,-99.99,,,0.01,weatherlink.com 1.10,2013-11-26 01:41:00,
2013-11-25 19:56:00,40.2,9.0,30.98,NW,304,6.0,-999.0,28,-99.99,,,0.01,weatherlink.com 1.10,2013-11-26 01:56:00,
2013-11-25 20:12:00,40.4,10.0,30.98,WNW,294,5.0,-999.0,28,-99.99,,,0.01,weatherlink.com 1.10,2013-11-26 02:12:00,
2013-11-25 20:27:00,40.4,10.0,30.98,NNW,329,4.0,-999.0,28,-99.99,,,0.01,weatherlink.com 1.10,2013-11-26 02:27:00,
2013-11-25 20:42:00,40.4,10.0,31.00,WNW,298,4.0,-999.0,28,-99.99,,,0.01,weatherlink.com 1.10,2013-11-26 02:42:00,
2013-11-25 20:57:00,40.3,9.0,31.00,NW,319,3.0,-999.0,28,-99.99,,,0.01,weatherlink.com 1.10,2013-11-26 02:57:00,
2013-11-25 21:12:00,40.1,9.0,30.97,NW,321,5.0,-999.0,28,-99.99,,,0.01,weatherlink.com 1.10,2013-11-26 03:12:00,
2013-11-25 21:27:00,40.2,9.0,30.97,WNW,295,4.0,-999.0,28,-99.99,,,0.01,weatherlink.com 1.10,2013-11-26 03:27:00,
2013-11-25 21:42:00,40.1,9.0,30.94,NNW,337,2.0,-999.0,28,-99.99,,,0.01,weatherlink.com 1.10,2013-11-26 03:42:00,
2013-11-25 21:58:00,40.0,9.0,30.92,North,360,5.0,-999.0,28,-99.99,,,0.01,weatherlink.com 1.10,2013-11-26 03:58:00,
2013-11-25 22:13:00,39.9,9.0,30.93,NW,315,5.0,-999.0,28,-99.99,,,0.01,weatherlink.com 1.10,2013-11-26 04:13:00,
2013-11-25 22:27:00,39.7,9.0,30.94,NW,318,6.0,-999.0,28,-99.99,,,0.01,weatherlink.com 1.10,2013-11-26 04:27:00,
2013-11-25 22:42:00,39.7,10.0,30.93,NW,311,6.0,-999.0,29,-99.99,,,0.01,weatherlink.com 1.10,2013-11-26 04:42:00,
2013-11-25 22:57:00,39.8,10.0,30.91,NW,309,6.0,-999.0,29,-99.99,,,0.01,weatherlink.com 1.10,2013-11-26 04:57:00,
2013-11-25 23:12:00,39.8,10.0,30.95,NNW,331,11.0,-999.0,29,-99.99,,,0.01,weatherlink.com 1.10,2013-11-26 05:12:00,
2013-11-25 23:27:00,40.0,11.0,30.96,NW,319,10.0,-999.0,30,-99.99,,,0.01,weatherlink.com 1.10,2013-11-26 05:27:00,
2013-11-25 23:42:00,40.2,11.0,30.95,NW,324,6.0,-999.0,30,-99.99,,,0.00,weatherlink.com 1.10,2013-11-26 05:42:00,
2013-11-25 23:58:00,40.3,11.0,30.97,WNW,300,4.0,-999.0,30,-99.99,,,0.00,weatherlink.com 1.10,2013-11-26 05:58:00,